[TLELIST] Archives

 

Current TLEs

November 17th 2007 PDT

HST 1 20580U 90037B 07320.21418696 .00000388 00000-0 17238-4 0 55 2 20580 028.4691 278.7288 0003416 269.4471 090.5726 15.00302767762810 ISS (ZARYA) 1 25544U 98067A 07320.43247692 .00021287 00000-0 13629-3 0 3559 2 25544 051.6415 038.9351 0001742 173.0789 286.7916 15.76258152514799 CXO 1 25867U 99040B 07321.04166667 .00000585 00000-0 10000-3 0 1353 2 25867 062.6932 085.9049 6461349 281.6231 000.2475 00.37805582 2827 ____________________________________________________________________ These 2-Line ...Continue Reading

Current TLEs

November 16th 2007 PDT

HST 1 20580U 90037B 07319.14982747 .00000347 00000-0 14068-4 0 40 2 20580 028.4695 285.6703 0003610 255.4224 104.5963 15.00302130762655 ISS (ZARYA) 1 25544U 98067A 07319.47925079 .00019724 00000-0 12687-3 0 3492 2 25544 051.6423 043.8462 0001714 179.5862 267.5770 15.76210455514641 CXO 1 25867U 99040B 07318.41666667 .00000529 00000-0 10000-3 0 1342 2 25867 062.6810 085.9604 6456380 281.6485 002.9048 00.37804884 2817 ____________________________________________________________________ These 2-Line ...Continue Reading

Current TLEs

November 15th 2007 PDT

HST 1 20580U 90037B 07316.28936315 +.00000330 +00000-0 +12718-4 0 00033 2 20580 028.4695 304.3232 0003565 225.6832 134.3466 15.00301018762220 ISS (ZARYA) 1 25544U 98067A 07318.40127131 .00017378 00000-0 11255-3 0 3445 2 25544 051.6418 049.3990 0001956 172.1065 274.1447 15.76157108514475 CXO 1 25867U 99040B 07318.41666667 .00000529 00000-0 10000-3 0 1342 2 25867 062.6810 085.9604 6456380 281.6485 002.9048 00.37804884 2817 ____________________________________________________________________ These 2-Line ...Continue Reading

Current TLEs

November 14th 2007 PDT

HST 1 20580U 90037B 07315.42457156 +.00000319 +00000-0 +11856-4 0 00162 2 20580 028.4694 309.9626 0003554 217.0513 142.9835 15.00300629762093 ISS (ZARYA) 1 25544U 98067A 07317.38505005 .00017147 00000-0 11130-3 0 3391 2 25544 051.6408 054.6322 0001775 164.3641 271.8460 15.76119398514315 CXO 1 25867U 99040B 07315.75000000 .00000483 00000-0 10000-3 0 1337 2 25867 062.6701 086.0147 6450537 281.6892 359.8641 00.37804422 2800 ____________________________________________________________________ These 2-Line ...Continue Reading

Current TLEs

November 13th 2007 PDT

HST 1 20580U 90037B 07316.22284072 .00000324 00000-0 12219-4 0 21 2 20580 028.4695 304.7572 0003579 225.2645 134.7653 15.00300939762216 ISS (ZARYA) 1 25544U 98067A 07315.86718869 .00016422 00000-0 10703-3 0 3330 2 25544 051.6409 062.4516 0002225 163.4678 294.6828 15.76063756514079 CXO 1 25867U 99040B 07315.75000000 .00000483 00000-0 10000-3 0 1337 2 25867 062.6701 086.0147 6450537 281.6892 359.8641 00.37804422 2800 ____________________________________________________________________ These 2-Line ...Continue Reading

Current TLEs

November 12th 2007 PDT

HST 1 20580U 90037B 07314.42673414 .00000302 00000-0 10550-4 0 14 2 20580 028.4693 316.4708 0003787 207.7680 152.2709 15.00300230761940 ISS (ZARYA) 1 25544U 98067A 07314.85169139 .00014636 00000-0 96020-4 0 3262 2 25544 051.6406 067.6823 0002197 163.7347 288.8148 15.76022744513912 CXO 1 25867U 99040B 07315.75000000 .00000483 00000-0 10000-3 0 1337 2 25867 062.6701 086.0147 6450537 281.6892 359.8641 00.37804422 2800 ____________________________________________________________________ These 2-Line ...Continue Reading

Current TLEs

November 11th 2007 PDT

HST 1 20580U 90037B 07313.36237474 .00000321 00000-0 12038-4 0 01 2 20580 028.4692 323.4117 0003776 196.5420 163.5044 15.00300022761784 ISS (ZARYA) 1 25544U 98067A 07313.90157527 .00013990 00000-0 92095-4 0 3210 2 25544 051.6409 072.5755 0002101 158.4653 299.8274 15.75991100513765 CXO 1 25867U 99040B 07313.12500000 .00000453 00000-0 10000-3 0 1327 2 25867 062.6596 086.0468 6444634 281.7526 002.4682 00.37804176 2794 ____________________________________________________________________ These 2-Line ...Continue Reading

Current TLEs

November 10th 2007 PDT

HST 1 20580U 90037B 07311.43322260 +.00000340 +00000-0 +13487-4 0 00083 2 20580 028.4688 335.9916 0003877 177.8644 182.1959 15.00299464761493 ISS (ZARYA) 1 25544U 98067A 07312.95135537 .00014814 00000-0 97374-4 0 3177 2 25544 051.6405 077.4690 0002595 161.2450 302.3284 15.75966340513610 CXO 1 25867U 99040B 07313.12500000 .00000453 00000-0 10000-3 0 1327 2 25867 062.6596 086.0468 6444634 281.7526 002.4682 00.37804176 2794 ____________________________________________________________________ These 2-Line ...Continue Reading

Current TLEs

November 9th 2007 PDT

HST 1 20580U 90037B 07312.23149193 .00000356 00000-0 14747-4 0 9990 2 20580 028.4688 330.7862 0003912 186.3773 173.6766 15.00299893761615 ISS (ZARYA) 1 25544U 98067A 07312.37103628 .00010588 00000-0 70905-4 0 3141 2 25544 051.6404 080.4603 0002856 160.0233 248.8801 15.75931877513529 CXO 1 25867U 99040B 07313.12500000 .00000453 00000-0 10000-3 0 1327 2 25867 062.6596 086.0468 6444634 281.7526 002.4682 00.37804176 2794 ____________________________________________________________________ These 2-Line ...Continue Reading

Current TLEs

November 8th 2007 PDT

HST 1 20580U 90037B 07309.50407017 +.00000399 +00000-0 +18115-4 0 00023 2 20580 028.4682 348.5706 0003838 156.8197 203.2569 15.00299054761207 ISS (ZARYA) 1 25544U 98067A 07311.41791212 .00026249 00000-0 16940-3 0 3090 2 25544 051.6369 085.3634 0002242 152.6061 245.2706 15.75932684513377 CXO 1 25867U 99040B 07310.45833333 .00000437 00000-0 10000-3 0 1319 2 25867 062.6443 086.0866 6440096 281.8144 359.3835 00.37804954 2789 ____________________________________________________________________ These 2-Line ...Continue Reading
  • This mailing list is a public mailing list - anyone may join or leave, at any time.
  • This mailing list is announce-only.

International Space Station (ISS) / Hubble Space Telescope (HST) / Chandra X-Ray Observatory Orbital Data via EMAIL

Privacy Policy:

Private list